Overview Statistics Trail Chart Weather Telemetry Raw packets
 

This is the latest recevied weather packets stored in our database for station/object MeshWX-1. If no packets are shown the sender has not sent any weather packets the latest 10 day(s).

<< 25 26 27 28 29 30 31 >>
Time Temp. Humidity Pressure Rain* Wind** Luminosity Snow
1788020693 30° C 28% 997.2 hPa - - - -
1788019832 30° C 28% 997.2 hPa - - - -
1788018591 34.44° C 23% 997.1 hPa - - - -
1788017762 34.44° C 23% 997.1 hPa - - - -
1788017653 36.11° C 22% 997.4 hPa - - - -
1788016491 36.11° C 22% 997.4 hPa - - - -
1788015673 36.11° C 22% 997.4 hPa - - - -
1788014331 37.22° C 21% 997.8 hPa - - - -
1788013595 37.22° C 21% 997.8 hPa - - - -
1788013476 37.22° C 21% 997.9 hPa - - - -
1788012231 37.22° C 21% 997.9 hPa - - - -
1788011515 37.22° C 21% 997.9 hPa - - - -
1788010190 37.78° C 20% 998.2 hPa - - - -
1788009465 37.78° C 20% 998.2 hPa - - - -
1788009334 36.67° C 20% 998.8 hPa - - - -
1788008150 36.67° C 20% 998.8 hPa - - - -
1788007430 36.67° C 20% 998.8 hPa - - - -
1788006050 36.67° C 20% 999.3 hPa - - - -
1788005360 36.67° C 20% 999.3 hPa - - - -
1788005262 37.22° C 19% 999.7 hPa - - - -
1788004010 37.22° C 19% 999.7 hPa - - - -
1788003307 37.22° C 19% 999.7 hPa - - - -
1788001910 34.44° C 22% 1000.3 hPa - - - -
1788001237 34.44° C 22% 1000.3 hPa - - - -
1788001156 33.89° C 23% 1000.5 hPa - - - -

* Rain since midnight (hover to see other rain measurements)
** Current wind speed in m/s (hover to see current wind gust speed)